#timestamp,LO_Frequency,Hit,StdDev 
1515445215.7,286047002.7,N
1515445235.5,286047000.4,N
1515445255.4,286046998.8,N
1515445275.2,286046995.0,N
1515445295.1,286046996.1,N
1515445296.0,286046996.1,N
1515445315.8,286046996.1,N
1515445335.6,286046995.6,N
1515445355.5,286046997.9,N
1515445375.3,286046998.0,N
1515445395.1,286046999.4,N
1515445415.9,286047001.1,N
1515445435.7,286046998.8,N
1515445455.6,286046998.9,N
1515445475.4,286046997.0,N
1515445495.2,286046998.1,N
1515445515.1,286046999.3,N
1515445516.0,286046999.3,N
1515445535.8,286046999.4,N
1515445555.7,286046997.3,N
1515445575.5,286046995.2,N
1515445595.3,286046995.3,N
1515445615.2,286046993.3,Y
1515445635.0,286046995.6,P
1515445635.9,286046995.6,P
1515445655.8,286046997.8,N
1515445675.6,286046998.7,N
1515445695.4,286047000.7,N
1515445715.3,286046998.1,N
1515445735.1,286046999.6,N
1515445755.8,286046996.9,N
1515445775.7,286046998.3,N
1515445795.5,286046994.9,Y
1515445815.4,286046998.9,P
1515445835.2,286046996.0,P
1515445855.0,286046994.0,P
1515445855.9,286046994.0,Y
1515445875.8,286046995.3,P
1515445895.6,286046993.6,P
1515445915.5,286046994.1,P
1515445935.3,286046991.7,Y
1515445955.1,286046998.2,P
1515445975.9,286046998.4,N
1515445995.7,286047001.2,N
1515446015.5,286047001.0,N
1515446035.4,286047001.0,N
1515446055.2,286046999.2,N
1515446075.1,286046995.4,N
1515446076.0,286046995.4,N
1515446095.8,286046994.1,N
1515446115.6,286046994.7,N
1515446135.5,286046992.0,Y
1515446155.3,286046994.2,P
1515446175.2,286046991.4,P
1515446195.9,286046992.5,N
1515446215.7,286046994.0,N
1515446235.6,286046995.4,N
1515446255.4,286046999.3,N
1515446275.2,286047000.0,N
1515446295.1,286046999.8,N
1515446296.0,286046999.8,N
1515446315.8,286046998.7,N
1515446335.7,286046997.6,N
1515446355.5,286046995.7,N
1515446375.3,286046994.1,N
1515446395.2,286046994.2,N
1515446415.0,286046991.7,Y
1515446415.9,286046991.7,P
1515446435.8,286046995.2,N
1515446455.6,286046997.5,N
1515446475.4,286046995.4,N
1515446495.3,286046995.1,N
1515446515.1,286046997.7,N
1515446535.8,286046995.0,N
1515446555.7,286046995.8,N
1515446575.5,286046997.8,N
1515446595.4,286046999.6,N
1515446615.2,286046994.9,N
1515446635.0,286046994.9,N
1515446635.9,286046994.9,N
1515446655.8,286046997.4,N
1515446675.6,286046994.9,N
1515446695.5,286046993.7,Y
1515446715.3,286046998.6,P
1515446735.1,286047001.6,N
1515446755.9,286047004.1,N
1515446775.7,286047005.5,N
1515446795.5,286047004.7,N
1515446815.4,286047006.5,N
1515446835.2,286047007.1,N
1515446855.1,286047006.7,N
1515446856.0,286047006.7,N
1515446875.8,286047006.5,N
1515446895.6,286047010.1,N
1515446915.5,286047011.7,Y
1515446935.3,286047008.4,P
1515446955.2,286047010.4,P
1515446975.9,286047004.5,N
1515446995.7,286047005.8,N
1515447015.6,286047005.6,N
1515447035.4,286047001.9,N
1515447055.3,286047002.8,N
1515447075.1,286047000.2,N
1515447076.0,286047000.2,N
1515447095.8,286047002.0,N
1515447115.7,286047002.1,N
1515447135.5,286047001.1,N
1515447155.3,286047000.0,N
1515447175.2,286047002.6,N
1515447195.0,286047003.8,N
1515447195.9,286047003.8,N
1515447215.8,286047005.4,N
1515447235.6,286047010.7,Y
1515447255.4,286047004.3,P
1515447275.3,286047004.1,P
1515447295.1,286047004.2,P
1515447315.9,286047004.4,Y
1515447335.7,286046996.6,P
1515447355.5,286046994.9,N
1515447375.4,286046995.0,N
1515447395.2,286046994.8,N
1515447415.1,286046992.8,N
1515447416.0,286046992.8,N
1515447435.8,286046991.1,N
1515447455.6,286046991.2,N
1515447475.5,286046987.0,Y
1515447495.3,286046995.5,P
1515447515.2,286046998.6,P
1515447535.9,286046998.1,N
1515447555.7,286047002.6,N
1515447575.6,286047004.3,N
1515447595.4,286047003.2,N
1515447615.3,286047002.6,N
1515447635.1,286046998.1,N
1515447636.0,286046998.1,N
1515447655.8,286046998.9,N
1515447675.7,286046999.4,N
1515447695.5,286046997.3,N
1515447715.4,286046996.1,N
1515447735.2,286046994.9,N
1515447755.0,286046999.4,N
1515447755.9,286046999.4,N
1515447775.8,286046997.8,N
1515447795.6,286046998.0,N
1515447815.4,286046997.1,N
1515447835.3,286046999.4,N
1515447855.1,286047000.9,N
1515447875.9,286047002.7,N
1515447895.7,286047003.1,N
1515447915.5,286047004.1,N
1515447935.4,286047007.4,N
1515447955.2,286047006.9,N
1515447975.1,286047006.5,N
1515447976.0,286047006.5,N
1515447995.8,286047008.8,N
1515448015.6,286047008.8,N
1515448035.5,286047008.3,N
1515448055.3,286047008.5,N
1515448075.1,286047010.5,N
1515448095.9,286047007.7,N
1515448115.7,286047008.5,N
1515448135.6,286047007.5,N
1515448155.4,286047007.2,N
1515448175.2,286047007.2,N
1515448195.1,286047005.8,N
1515448196.0,286047005.8,N
1515448215.8,286047008.9,N
1515448235.7,286047008.6,N
1515448255.5,286047010.5,N
1515448275.3,286047009.8,N
1515448295.2,286047012.0,N
1515448315.0,286047012.1,N
1515448315.9,286047012.1,N
1515448335.7,286047011.1,N
1515448355.6,286047013.3,Y
1515448375.4,286047009.0,P
1515448395.3,286047006.5,P
1515448415.1,286047006.6,P
1515448435.8,286047005.4,Y
1515448455.7,286046995.5,P
1515448475.5,286046998.0,N
1515448495.4,286046995.6,N
1515448515.2,286046994.5,N
1515448535.0,286046993.9,N
1515448535.9,286046993.9,N
1515448555.8,286046994.9,N
1515448575.6,286046997.8,N
1515448595.5,286046996.4,N
1515448615.3,286046992.9,N
1515448635.1,286046988.7,Y
1515448655.9,286046990.9,P
1515448675.7,286046990.4,P
1515448695.5,286046990.5,P
1515448715.4,286046991.0,Y
1515448735.2,286047002.5,P
1515448755.1,286047004.2,N
1515448756.0,286047004.2,N
1515448775.8,286047005.3,N
1515448795.6,286047007.5,N
